Find SBSS 1

NORAD ID: 37168 Int'l Des: 2010-048 Owner: AFSMC Country: US Constellation: satellogic operational
LEOCIRCULARRETROGRADESSO

当前视图

正在加载3D地球...

About SBSS 1

SBSS 1 (NORAD 37168) is a satellogic constellation satellite launched Sep 26, 2010 by AFSMC of US. It operates in LEO, CIRCULAR, RETROGRADE, SSO orbit with a mass of 1031.00 kg.

关于 SBSS 1

正在加载描述...

即将过境

Passes for default location (London). Set your location on the main map for personalized predictions.

高度历史

Loading altitude history...

两行轨道根数

1 37168U 10048A 26195.19460273 .00002666 00000-0 12834-3 0 9994
2 37168 97.7299 81.1786 0082272 109.9986 8.2359 15.16724180856566
Epoch: Jul 14, 2026 • Age: 18 hours

当前状态

高度 497.9 km
远地点 / 近地点 N/A
速度 7.63 km/s
星下点 3.24°N, 5.53°W
发射日期 Sep 26, 2010
运行时间 15.7 years
类型 other

技术详情

分类 Payload
质量 1031.00 kg
干质量 900.00 kg
总质量 1031.00 kg
长度 3.00 m
直径 2.00 m
跨度 10.00 m
形状 Box + 2 Pan
制造商 BALL/BOSB
平台类型 BCP-2000
阶段状态 In Orbit
所有者/国家 AFSMC/US

Most Searched